KMAF

Midland International Airport

Airport
ICAO code
KMAF
Summary
ICAO Region
NAM
ICAO Territory
Location

Midland, Texas,

Coordinates
31° 56' 14" N , 102° 12' 28" W
KCC
Airport LOS
Parallel Runway Operation
Airport WX
Sand Storm
Metar
Observation
KMAF 310953Z AUTO 21008KT 7SM CLR 13/12 A2979 RMK AO2 SLP053 T01280122
Station
Midland, Midland International Airport
Date/Time
2023-03-31 09:53:00
Wind direction
210°
Wind speed
08 kts
Lowest cloud amount
n/a
Temperature
12.8°C
Dew point
12.2°C
Humidity
96%
Weather condition
n/a

Description

Midland International Airport is a public use airport located 15 km southwest of the central business district of Midland, a city in Midland County, Texas.

Climatology

Hot, semi-arid/Steppe climate (Köppen climate classification BSh) - hot, sometimes extremely hot summers and mild to warm winters, with low annual precipitation.

Runways

Designator Length Width Surface Rops
16L/34R 1323 30 ASP Yes/Yes
4/22 1404 23 ASP Yes/Yes
10/28 2530 46 ASP Yes/Yes
16R/34L 2896 46 ASP Yes/Yes

Airport map

Aerial View

SKYbrary Partners:

Safety knowledge contributed by: